Regional Weather Roundup
Issued by NWS Kansas City/Pleasant Hill, MO

Home | Current Version | Previous Version | Text Only | Print | Product List | Glossary On
Versions: 1 2 3 4 5 6 7 8 9 10 11 12 13 14 15 16 17 18 19 20 21 22 23 24 25 26 27 28
000
ASUS43 KEAX 171410
RWREAX

WEATHER ROUNDUP FOR EASTERN KANSAS AND NORTHWEST MISSOURI
NATIONAL WEATHER SERVICE KANSAS CITY/PLEASANT HILL MO
800 AM CST TUE JAN 17 2017

KSZ040-057-103>105-MOZ028-029-037-043-171500-
...KANSAS CITY METROPOLITAN AREA...

CITY           SKY/WX    TMP DP  RH WIND       PRES   REMARKS
K.C. INTL      CLOUDY    34  33  96 W7        30.05R FOG     WCI  28
K.C. DOWNTOWN  CLOUDY    36  34  92 W6        30.06R WCI  31
LEES SUMMIT    CLOUDY    34  33  96 MISG      30.05R
OLATHE - IXD   CLOUDY    34  33  96 W7        30.07R FOG     WCI  28
OLATHE - OJC   CLOUDY    33  33 100 NW7       30.06R FOG     WCI  27
LAWRENCE       CLOUDY    35  34  96 W8        30.08R WCI  29

$$

MOZ001>008-011>017-020>025-030>033-038>040-044>046-053-054-171500-
...NORTHERN AND CENTRAL MISSOURI...

CITY           SKY/WX    TMP DP  RH WIND       PRES   REMARKS
ST. JOSEPH     CLOUDY    33  33 100 NW6       30.06R FOG     WCI  28
MOSBY          CLOUDY    34  34 100 W6        30.06R FOG     WCI  29
WARRENSBURG    CLOUDY    34  34 100 W6        30.06R FOG     WCI  29
WHITEMAN AFB   CLOUDY    36  36 100 W9        30.04R WCI  29
CLINTON        CLOUDY    36  36 100 W7        30.08R FOG     WCI  30
SEDALIA        CLOUDY    37  36  96 W7        30.06R FOG     WCI  32
WARSAW         NOT AVBL
CHILLICOTHE      N/A     34  34 100 W3        30.04R
KIRKSVILLE     CLOUDY    35  33  92 W9        29.99R WCI  28

$$

MOZ041-047>049-056>058-063>065-088>090-097-171500-
...EASTERN AND SOUTHERN MISSOURI...

CITY           SKY/WX    TMP DP  RH WIND       PRES   REMARKS
ST. LOUIS INTL CLOUDY    44  37  76 W17G23    29.98R
SPIRIT OF STL  MOCLDY    43  38  82 SW13      30.00R
COLUMBIA       CLOUDY    38  38 100 W12       30.03R FOG     WCI  30
JEFFERSON CITY CLOUDY    40  36  86 W12       30.05R WCI  33
ROLLA          CLOUDY    39  38  96 W13G21    30.01R FOG     WCI  31
OSAGE BEACH    CLOUDY    39  37  92 W10       30.06R WCI  32
SPRINGFIELD    CLOUDY    37  35  92 W9        30.05S WCI  30
BRANSON        CLOUDY    39  36  87 W6        30.07S WCI  35
JOPLIN         CLOUDY    37  36  96 W9        30.11R WCI  30
WEST PLAINS    CLOUDY    40  37  89 NW8       30.03S WCI  34

$$

IAZ060-094-KSZ022-034>040-054-083-096-NEZ052-066-093-171500-
...KANSAS...SOUTHEAST NEBRASKA AND IOWA...

CITY           SKY/WX    TMP DP  RH WIND       PRES   REMARKS
TOPEKA         CLOUDY    35  31  85 NW6       30.08R WCI  30
MANHATTAN      MOCLDY    33  30  88 W5        30.10R WCI  29
EMPORIA        CLOUDY    33  32  96 W6        30.09R WCI  28
CHANUTE        CLOUDY    36  34  92 NW8       30.11R FOG     WCI  30
WICHITA        PTCLDY    33  31  92 NW8       30.10F WCI  26
OMAHA          FRZ DRZL  27  22  81 W12       30.06R WCI  17
LINCOLN        CLEAR     24  19  81 NW9       30.09S WCI  14
FALLS CITY     CLOUDY    32  30  92 NW9       30.05R WCI  24
LAMONI         CLOUDY    33  32  96 W12       29.99R FOG     WCI  24
DES MOINES     DRZL/FOG  34  33  96 NW10      29.97S VSB 1   WCI  26

$$





USA.gov is the U.S. government's official web portal to all federal, state and local government web resources and services.